Weather History for San Diego, CA

Change the Weather History Date:

Tuesday, November 26, 2013

  Actual Average Record
Temperature  
Mean Temperature 63 °F 59 °F  
Max Temperature 74 °F 67 °F 85 °F (1956)
Min Temperature 52 °F 51 °F 41 °F (1880)
Degree Days  
Heating Degree Days 2 6  
Month to date heating degree days 39 99  
Since 1 July heating degree days 61 120  
Cooling Degree Days 0 0  
Month to date cooling degree days 23 11  
Year to date cooling degree days 761 718  
Growing Degree Days 12 (Base 50)    
Moisture  
Dew Point 46 °F    
Average Humidity 50    
Maximum Humidity 72    
Minimum Humidity 27    
Precipitation  
Precipitation 0.00 in 0.04 in 1.05 in (2008)
Month to date precipitation 1.47 0.84  
Year to date precipitation 5.10 8.64  
Since 1 July precipitation 1.77 1.61  
Snow  
Snow 0.00 in - - ()
Month to date snowfall 0.0  
Year to date snowfall 0.0  
Since 1 July snowfall 0.0  
Snow Depth 0.00 in    
Sea Level Pressure  
Sea Level Pressure 30.12 in    
Wind  
Wind Speed 3 mph (NW)    
Max Wind Speed 12 mph    
Max Gust Speed 15 mph    
Visibility 9 miles    
Events      
T = Trace of Precipitation, MM = Missing Value Source: NWS Daily Summary

Daily Weather History Graph

Daily Weather History Graph

Search for Another Location

Airport:

Trip Planner

Search our weather history database for the weather conditions in past years. The results will help you decide how hot, cold, wet, or windy it might be!

Date:

Astronomy

Nov. 26, 2013 Rise Set
Actual Time 6:29 AM PST 4:43 PM PST
Civil Twilight 6:02 AM PST 5:09 PM PST
Nautical Twilight 5:32 AM PST 5:40 PM PST
Astronomical Twilight 5:02 AM PST 6:09 PM PST
Moon No Moon Rise 12:33 PM PST (11/26)
Length of Visible Light 11h 07m
Length of Day
10h 14m
Last Quarter, 40% of the Moon is Illuminated
Nov 26
Last Quarter
Dec 2
New
Dec 9
First Quarter
Dec 17
Full
Dec 25
Last Quarter

Hourly Weather History & Observations

Time (PST) Temp. Dew Point Humidity Pressure Visibility Wind Dir Wind Speed Gust Speed Precip Events Conditions
12:51 AM 57.0 °F 46.0 °F 67% 30.20 in 9.0 mi North 3.5 mph - N/A   Partly Cloudy
1:51 AM 55.0 °F 46.0 °F 72% 30.19 in 9.0 mi Calm Calm - N/A   Scattered Clouds
2:51 AM 54.0 °F 44.1 °F 69% 30.18 in 10.0 mi Calm Calm - N/A   Scattered Clouds
3:51 AM 55.9 °F 43.0 °F 62% 30.18 in 10.0 mi Calm Calm - N/A   Mostly Cloudy
4:51 AM 53.1 °F 43.0 °F 69% 30.18 in 10.0 mi NNE 3.5 mph - N/A   Mostly Cloudy
5:51 AM 53.1 °F 42.1 °F 66% 30.18 in 10.0 mi Calm Calm - N/A   Mostly Cloudy
6:51 AM 54.0 °F 42.1 °F 64% 30.18 in 10.0 mi NNW 3.5 mph - N/A   Mostly Cloudy
7:51 AM 57.0 °F 43.0 °F 59% 30.19 in 10.0 mi Calm Calm - N/A   Mostly Cloudy
8:51 AM 64.9 °F 42.1 °F 43% 30.19 in 10.0 mi Calm Calm - N/A   Mostly Cloudy
9:51 AM 69.1 °F 41.0 °F 36% 30.17 in 10.0 mi West 3.5 mph - N/A   Mostly Cloudy
10:51 AM 72.0 °F 35.1 °F 26% 30.15 in 10.0 mi WNW 5.8 mph - N/A   Mostly Cloudy
11:51 AM 72.0 °F 39.0 °F 30% 30.11 in 10.0 mi WNW 8.1 mph - N/A   Mostly Cloudy
12:51 PM 73.0 °F 37.0 °F 27% 30.08 in 10.0 mi NW 6.9 mph - N/A   Mostly Cloudy
1:51 PM 72.0 °F 41.0 °F 33% 30.06 in 10.0 mi NW 8.1 mph - N/A   Mostly Cloudy
2:51 PM 72.0 °F 36.0 °F 27% 30.06 in 10.0 mi WNW 9.2 mph - N/A   Mostly Cloudy
3:51 PM 68.0 °F 52.0 °F 56% 30.05 in 10.0 mi WNW 8.1 mph - N/A   Mostly Cloudy
4:51 PM 66.0 °F 53.1 °F 63% 30.06 in 8.0 mi NW 4.6 mph - N/A   Mostly Cloudy
5:51 PM 64.9 °F 51.1 °F 61% 30.07 in 9.0 mi NW 3.5 mph - N/A   Mostly Cloudy
6:51 PM 64.9 °F 55.0 °F 70% 30.07 in 7.0 mi NE 3.5 mph - N/A   Mostly Cloudy
7:51 PM 64.0 °F 55.0 °F 73% 30.07 in 7.0 mi Calm Calm - N/A   Mostly Cloudy
8:51 PM 63.0 °F 53.1 °F 70% 30.07 in 7.0 mi Calm Calm - N/A   Mostly Cloudy
9:51 PM 63.0 °F 54.0 °F 72% 30.07 in 7.0 mi Calm Calm - N/A   Mostly Cloudy
10:51 PM 62.1 °F 51.1 °F 67% 30.06 in 8.0 mi Calm Calm - N/A   Mostly Cloudy
11:51 PM 61.0 °F 51.1 °F 70% 30.05 in 8.0 mi Calm Calm - N/A   Mostly Cloudy